Location: Waco, TX
(31.5480°N, 97.1670°W)
Time: 16:32:14
(UTC-06:00)

ISS - Pass Details

Date: 10 February 2018
Orbit: 402 x 407 km, 51.6° (Epoch: 23 February)

Event Time Altitude Azimuth Distance (km) Brightness Sun altitude
Rises 12:55:57 0° 248° (WSW) 2,305 0.3 44.2°
Reaches altitude 10° 12:58:13 10° 261° (W) 1,449 -0.8 44.1°
Maximum altitude 13:01:02 27° 321° (NW) 814 -2.3 44.1°
Drops below altitude 10° 13:03:52 10° 21° (NNE) 1,453 -1.3 44.0°
Sets 13:06:09 0° 34° (NE) 2,314 -0.4 43.9°
